Weather History for KLCK - November, 2013

Change the Weather History Date:

Wednesday, November 20, 2013

  Actual Average (KCMH) Record (KCMH)
Temperature  
Mean Temperature 40 °F 43 °F  
Max Temperature 51 °F 51 °F 74 °F (1942)
Min Temperature 28 °F 35 °F 11 °F (1914)
Degree Days  
Heating Degree Days 26 22  
Month to date heating degree days 374  
Since 1 July heating degree days 768  
Cooling Degree Days 0 0  
Month to date cooling degree days 0  
Year to date cooling degree days 1024  
Moisture  
Dew Point 25 °F    
Average Humidity 61    
Maximum Humidity 78    
Minimum Humidity 35    
Precipitation  
Precipitation 0.00 in 0.12 in 1.48 in (1906)
Month to date precipitation 2.11  
Year to date precipitation 35.25  
Snow  
Snow 0.00 in 0.00 in 0.90 in (1887)
Month to date snowfall 0.4  
Since 1 July snowfall 0.6  
Since 1 September snowfall 0.6  
Snow Depth -    
Sea Level Pressure  
Sea Level Pressure 30.32 in    
Wind  
Wind Speed 6 mph (East)    
Max Wind Speed 10 mph    
Max Gust Speed -    
Visibility 10 miles    
Events      
T = Trace of Precipitation, MM = Missing Value Source: NWS Daily Summary

Daily Weather History Graph

Daily Weather History Graph

Search for Another Location

Airport or City:

Trip Planner

Search our weather history database for the weather conditions in past years. The results will help you decide how hot, cold, wet, or windy it might be!

Date:

Astronomy

Nov. 20, 2013 Rise Set
Actual Time 7:22 AM EST 5:12 PM EST
Civil Twilight 6:53 AM EST 5:41 PM EST
Nautical Twilight 6:20 AM EST 6:14 PM EST
Astronomical Twilight 5:47 AM EST 6:46 PM EST
Moon 7:54 PM EST (11/20) 9:46 AM EST (11/20)
Length of Visible Light 10h 48m
Length of Day
9h 49m
Waning Gibbous, 91% of the Moon is Illuminated
Nov 20
Waning Gibbous
Nov 25
Last Quarter
Dec 2
New
Dec 9
First Quarter
Dec 17
Full

Hourly Weather History & Observations

Time (EST) Temp. Windchill Dew Point Humidity Pressure Visibility Wind Dir Wind Speed Gust Speed Precip Events Conditions
12:15 AM 30.7 °F 26.0 °F 23.5 °F 75% 30.37 in 10.0 mi East 4.6 mph - N/A   Clear
12:35 AM 30.7 °F 26.0 °F 23.9 °F 76% 30.37 in 10.0 mi ENE 4.6 mph - N/A   Clear
12:55 AM 30.0 °F 25.2 °F 23.2 °F 76% 30.36 in 10.0 mi ENE 4.6 mph - N/A   Clear
1:15 AM 29.3 °F 22.3 °F 23.0 °F 77% 30.36 in 10.0 mi NE 6.9 mph - N/A   Clear
1:35 AM 28.8 °F 21.7 °F 22.8 °F 78% 30.35 in 10.0 mi NE 6.9 mph - N/A   Clear
1:55 AM 28.8 °F 23.7 °F 22.8 °F 78% 30.35 in 10.0 mi ENE 4.6 mph - N/A   Clear
2:15 AM 29.5 °F 23.4 °F 23.0 °F 77% 30.35 in 10.0 mi ENE 5.8 mph - N/A   Clear
2:35 AM 29.5 °F 23.4 °F 22.8 °F 76% 30.35 in 10.0 mi ENE 5.8 mph - N/A   Clear
2:55 AM 29.8 °F 23.9 °F 22.8 °F 75% 30.35 in 10.0 mi ENE 5.8 mph - N/A   Clear
3:15 AM 29.3 °F 22.3 °F 22.1 °F 75% 30.36 in 10.0 mi NE 6.9 mph - N/A   Clear
3:35 AM 28.8 °F 21.7 °F 21.6 °F 74% 30.36 in 10.0 mi NE 6.9 mph - N/A   Clear
3:55 AM 28.8 °F 20.9 °F 21.6 °F 74% 30.36 in 10.0 mi NE 8.1 mph - N/A   Clear
4:15 AM 28.9 °F 21.9 °F 21.6 °F 74% 30.36 in 10.0 mi NE 6.9 mph - N/A   Clear
4:35 AM 28.9 °F 22.8 °F 21.6 °F 74% 30.36 in 10.0 mi ENE 5.8 mph - N/A   Clear
4:55 AM 29.1 °F 24.1 °F 21.6 °F 73% 30.36 in 10.0 mi ENE 4.6 mph - N/A   Clear
5:15 AM 28.8 °F 21.7 °F 21.4 °F 74% 30.36 in 10.0 mi NE 6.9 mph - N/A   Clear
5:35 AM 28.4 °F 21.2 °F 21.2 °F 74% 30.36 in 10.0 mi ENE 6.9 mph - N/A   Clear
5:55 AM 28.4 °F 23.3 °F 21.4 °F 75% 30.36 in 10.0 mi NE 4.6 mph - N/A   Clear
6:15 AM 28.2 °F 22.0 °F 21.2 °F 75% 30.36 in 10.0 mi ENE 5.8 mph - N/A   Clear
6:35 AM 28.6 °F 22.4 °F 21.6 °F 75% 30.36 in 10.0 mi East 5.8 mph - N/A   Clear
6:55 AM 29.1 °F 25.4 °F 21.7 °F 74% 30.36 in 10.0 mi East 3.5 mph - N/A   Clear
7:15 AM 29.1 °F 23.0 °F 21.6 °F 73% 30.36 in 10.0 mi ENE 5.8 mph - N/A   Clear
7:35 AM 28.8 °F 20.2 °F 21.4 °F 74% 30.36 in 10.0 mi ENE 9.2 mph - N/A   Clear
7:55 AM 29.5 °F 21.8 °F 22.5 °F 75% 30.36 in 10.0 mi ENE 8.1 mph - N/A   Clear
8:15 AM 30.9 °F 24.3 °F 23.2 °F 73% 30.36 in 10.0 mi ENE 6.9 mph - N/A   Clear
8:35 AM 32.0 °F 24.8 °F 23.9 °F 72% 30.37 in 10.0 mi ENE 8.1 mph - N/A   Clear
8:55 AM 32.7 °F 25.7 °F 24.4 °F 72% 30.37 in 10.0 mi East 8.1 mph - N/A   Clear
9:15 AM 33.8 °F 27.0 °F 24.6 °F 69% 30.37 in 10.0 mi East 8.1 mph - N/A   Clear
9:35 AM 35.2 °F 30.3 °F 25.2 °F 67% 30.37 in 10.0 mi East 5.8 mph - N/A   Clear
9:55 AM 36.7 °F 29.9 °F 25.0 °F 63% 30.37 in 10.0 mi East 9.2 mph - N/A   Clear
10:15 AM 38.5 °F 31.6 °F 24.8 °F 58% 30.36 in 10.0 mi ESE 10.4 mph - N/A   Clear
10:35 AM 39.6 °F 33.5 °F 25.2 °F 56% 30.37 in 10.0 mi ESE 9.2 mph - N/A   Clear
10:55 AM 40.8 °F 35.0 °F 25.3 °F 54% 30.36 in 10.0 mi ESE 9.2 mph - N/A   Clear
11:15 AM 42.1 °F 37.1 °F 25.3 °F 52% 30.35 in 10.0 mi ESE 8.1 mph - N/A   Clear
11:35 AM 44.2 °F 39.2 °F 25.9 °F 49% 30.34 in 10.0 mi ESE 9.2 mph - N/A   Clear
11:55 AM 46.0 °F 41.4 °F 25.5 °F 45% 30.33 in 10.0 mi SE 9.2 mph - N/A   Clear
12:15 PM 46.8 °F - 24.8 °F 42% 30.32 in 10.0 mi SSE 9.2 mph - N/A   Clear
12:35 PM 46.4 °F 41.9 °F 25.0 °F 43% 30.31 in 10.0 mi SE 9.2 mph - N/A   Clear
12:55 PM 47.3 °F - 25.3 °F 42% 30.31 in 10.0 mi ESE 8.1 mph - N/A   Clear
1:15 PM 48.4 °F - 25.3 °F 41% 30.30 in 10.0 mi ESE 10.4 mph - N/A   Clear
1:35 PM 49.3 °F - 26.1 °F 40% 30.29 in 10.0 mi ESE 8.1 mph - N/A   Clear
1:55 PM 49.6 °F - 25.2 °F 38% 30.28 in 10.0 mi ESE 10.4 mph - N/A   Clear
2:15 PM 50.2 °F - 25.2 °F 38% 30.28 in 10.0 mi SE 8.1 mph - N/A   Clear
2:35 PM 50.5 °F - 24.6 °F 36% 30.27 in 10.0 mi ESE 9.2 mph - N/A   Clear
2:55 PM 51.1 °F - 25.0 °F 36% 30.27 in 10.0 mi SSE 8.1 mph - N/A   Clear
3:15 PM 50.9 °F - 24.8 °F 36% 30.26 in 10.0 mi ESE 9.2 mph - N/A   Clear
3:35 PM 51.1 °F - 24.4 °F 35% 30.26 in 10.0 mi SE 6.9 mph - N/A   Clear
3:55 PM 51.1 °F - 24.4 °F 35% 30.26 in 10.0 mi SE 9.2 mph - N/A   Clear
4:15 PM 50.5 °F - 25.0 °F 37% 30.26 in 10.0 mi SE 9.2 mph - N/A   Clear
4:35 PM 49.5 °F - 25.3 °F 39% 30.26 in 10.0 mi SE 8.1 mph - N/A   Clear
4:55 PM 47.7 °F - 26.2 °F 43% 30.26 in 10.0 mi SE 5.8 mph - N/A   Clear
5:15 PM 46.4 °F - 26.4 °F 46% 30.27 in 10.0 mi Calm Calm - N/A   Clear
5:35 PM 45.3 °F - 26.6 °F 48% 30.27 in 10.0 mi Calm Calm - N/A   Clear
5:55 PM 44.8 °F 43.3 °F 26.4 °F 49% 30.28 in 10.0 mi East 3.5 mph - N/A   Clear
6:15 PM 43.2 °F 40.5 °F 26.8 °F 52% 30.28 in 10.0 mi East 4.6 mph - N/A   Clear
6:35 PM 40.3 °F 37.1 °F 28.2 °F 62% 30.28 in 10.0 mi East 4.6 mph - N/A   Clear
6:55 PM 39.2 °F 35.0 °F 28.4 °F 65% 30.28 in 10.0 mi East 5.8 mph - N/A   Clear
7:15 PM 39.4 °F 36.1 °F 27.3 °F 62% 30.28 in 10.0 mi East 4.6 mph - N/A   Clear
7:35 PM 40.6 °F 37.5 °F 26.4 °F 57% 30.28 in 10.0 mi East 4.6 mph - N/A   Clear
7:55 PM 39.4 °F 36.1 °F 26.8 °F 61% 30.27 in 10.0 mi East 4.6 mph - N/A   Clear
8:15 PM 37.0 °F 32.4 °F 26.6 °F 66% 30.27 in 10.0 mi East 5.8 mph - N/A   Clear
8:35 PM 36.9 °F 34.3 °F 26.4 °F 66% 30.27 in 10.0 mi East 3.5 mph - N/A   Clear
8:55 PM 37.4 °F - 25.9 °F 63% 30.27 in 10.0 mi Calm Calm - N/A   Clear
9:15 PM 38.7 °F - 25.7 °F 60% 30.27 in 10.0 mi Calm Calm - N/A   Clear
9:35 PM 37.6 °F 35.1 °F 26.6 °F 65% 30.27 in 10.0 mi ENE 3.5 mph - N/A   Clear
9:55 PM 37.2 °F 34.7 °F 27.3 °F 67% 30.27 in 10.0 mi East 3.5 mph - N/A   Clear
10:15 PM 37.2 °F 34.7 °F 27.5 °F 68% 30.27 in 10.0 mi ESE 3.5 mph - N/A   Clear
10:35 PM 37.8 °F 35.3 °F 26.8 °F 65% 30.26 in 10.0 mi East 3.5 mph - N/A   Clear
10:55 PM 38.7 °F - 26.4 °F 61% 30.26 in 10.0 mi Calm Calm - N/A   Clear
11:15 PM 41.2 °F 38.2 °F 25.9 °F 55% 30.26 in 10.0 mi SSE 4.6 mph - N/A   Clear
11:35 PM 42.1 °F 37.7 °F 26.1 °F 53% 30.27 in 10.0 mi SSE 6.9 mph - N/A   Clear
11:55 PM 42.1 °F 38.4 °F 27.0 °F 55% 30.27 in 10.0 mi SE 5.8 mph - N/A   Clear